Location: Kammschlacken
(51.7597°N, 10.3901°E)
Time: 06:19:41
(UTC+00:00)

Daily predictions for brighter satellites

Satellite Brightness Start Highest point End
(mag) Time Altitude Azimuth Time Altitude Azimuth Time Altitude Azimuth
CENTAUR R/B 3.3 19:06:30 10° S 19:11:30 28° ESE 19:17:13 10° ENE
DMSP B5D2-2 4.1 19:08:07 10° NNE 19:13:20 61° ESE 19:18:31 10° S
Cosmos 1954 Rocket 4.3 19:09:19 10° S 19:14:25 49° ESE 19:19:32 10° NNE
Spot 2 Rocket 4.5 19:12:06 10° ESE 19:16:34 32° ENE 19:21:02 10° N
Intercosmos 25 3.5 19:13:55 10° NNW 19:17:51 65° W 19:21:01 10° S
IRIDIUM 103 4.5 19:12:42 10° S 19:17:56 85° W 19:23:12 10° N
FREGAT/IRIS 3.8 19:15:44 10° S 19:18:13 38° W 19:20:43 10° NNW
Cosmos 1812 4.0 19:15:35 10° NNW 19:19:15 43° W 19:22:54 10° SSW
Cosmos 1821 Rocket 4.1 19:13:06 10° S 19:19:18 87° E 19:25:38 10° N
Ariane Rocket 3.8 19:14:26 10° S 19:19:22 54° W 19:24:21 10° NNW
Cosmos 405 Rocket 4.0 19:16:43 10° SE 19:19:37 22° E 19:22:35 10° NE
Okean 1-7 4.4 19:17:41 10° NNE 19:21:12 24° ENE 19:24:40 10° ESE
Cosmos 1805 Rocket 4.2 19:17:55 10° SSW 19:22:20 63° WNW 19:26:48 10° N
Cosmos 407 Rocket 3.8 19:19:28 10° SSW 19:24:47 78° WNW 19:30:04 10° NNE
Cosmos 2333 Rocket 4.1 19:22:59 10° NNW 19:27:15 20° NNE 19:31:29 10° E
SJ-6B 3.9 19:23:27 10° S 19:27:19 47° W 19:31:08 10° NNW
Cosmos 1763 Rocket 3.8 19:22:27 10° NNW 19:27:43 56° ENE 19:32:56 10° SE
Cosmos 1437 Rocket 3.8 19:25:19 10° N 19:28:38 28° ENE 19:31:55 10° SE
Cosmos 1190 Rocket 4.2 19:23:40 10° SSW 19:28:59 85° WNW 19:34:21 10° NNE
deb Kosmos-1763 4.0 19:26:31 10° SSW 19:30:09 89° WNW 19:33:51 10° NNE
Cosmos 1140 Rocket 3.6 19:25:33 10° SSW 19:30:48 85° WNW 19:36:06 10° NNE
FALCON 9 DEB 3.1 19:27:40 10° WSW 19:31:10 86° SSE 19:34:41 10° ENE
Cosmos 1703 Rocket 4.5 19:27:26 10° N 19:31:21 31° ENE 19:35:10 10° SE
Resurs 1-3 3.7 19:27:57 10° SSE 19:32:20 81° WSW 19:36:46 10° NNW
H-2A R/B 4.4 19:30:17 10° NE 19:33:51 27° E 19:37:25 10° SSE
OBJECT-B 1.3 19:31:40 10° S 19:34:56 63° W 19:38:13 10° NNW
Cosmos 2084 Rocket 4.3 19:32:41 10° S 19:36:13 27° ESE 19:39:51 10° ENE
Cosmos 1633 Rocket 3.0 19:34:07 10° S 19:38:32 83° E 19:42:59 10° NNE
Cosmos 1184 Rocket 2.7 19:36:04 10° S 19:39:21 68° E 19:42:38 10° NNE
Cosmos 921 Rocket 3.1 19:35:59 10° NNW 19:40:13 77° WSW 19:44:23 10° SSE
Landsat 7 4.3 19:36:32 10° SE 19:41:03 46° ENE 19:45:37 10° N
Cosmos 2123 Rocket 4.1 19:34:57 10° NNW 19:41:13 84° W 19:47:29 10° S
SPOT 5 4.1 19:38:25 10° ESE 19:41:47 23° ENE 19:45:19 10° N
Cosmos 1535 Rocket 4.4 19:38:57 10° S 19:45:04 80° E 19:51:12 10° NNE
MetOp-B 4.2 19:41:21 10° SSE 19:46:40 68° ENE 19:52:00 10° NNW
Meteor 1-19 Rocket 4.3 19:44:23 10° N 19:49:46 59° ENE 19:54:58 11° SSE
Okean 1 3.4 19:48:25 10° N 19:52:27 62° ENE 19:56:09 12° SSE
CZ-2C R/B 3.1 19:47:49 10° N 19:52:57 64° WNW 19:58:08 10° SSW
ERBS 3.8 19:50:24 10° WNW 19:53:27 32° N 19:56:29 10° ENE
Cosmos 1605 Rocket 4.0 19:47:28 10° S 19:53:29 65° E 19:59:31 10° NNE
USA 267 4.0 19:51:10 10° ENE 19:56:40 28° SE 20:02:09 10° S
NOSS 3-2 (A) 3.4 19:51:44 10° SW 19:57:31 77° SE 20:04:14 10° NE
Cosmos 2219 Rocket 3.8 19:53:04 10° NNW 19:57:44 25° NE 20:02:22 10° E
Meteor 2-4 Rocket 4.2 19:52:56 10° N 19:58:21 45° ENE 20:02:35 15° SE
Cosmos 540 Rocket 3.8 19:55:33 10° NNW 20:00:39 55° ENE 20:04:39 16° SE
SL-16 R/B 2.2 19:55:51 10° NNW 20:01:35 88° ENE 20:06:28 14° SSE
SL-4 R/B 1.8 19:59:52 10° W 20:03:52 88° S 20:07:24 11° E
BREEZE-M DEB (TANK) 2.5 20:01:55 10° WSW 20:04:39 65° S 20:11:51 10° E
Cosmos 2242 Rocket 3.5 20:00:39 10° N 20:05:06 83° ENE 20:09:08 12° SSE
SL-27 R/B 2.9 20:04:28 14° SSE 20:06:55 35° ESE 20:09:58 10° NE
NOSS 3-2 (C) 3.4 20:02:32 10° SSW 20:08:13 61° SE 20:14:46 10° NE
Cosmos 1470 Rocket 3.6 20:03:58 10° S 20:08:22 86° WNW 20:12:45 10° N
BREEZE-M DEB (TANK) 2.0 20:09:34 10° W 20:11:59 42° S 20:12:31 32° SE
Cosmos 2082 Rocket 3.0 20:07:18 10° SW 20:12:53 55° NW 20:18:28 10° NNE
Cosmos 2322 Rocket 2.2 20:13:11 10° NNW 20:18:54 85° WSW 20:23:14 18° SSE
ERS-1 Rocket 3.2 20:16:14 19° SE 20:19:45 57° ENE 20:24:40 10° N
Meteor 1-14 Rocket 4.4 20:14:25 10° S 20:20:14 65° E 20:26:10 10° NNE
Cosmos 967 Rocket 4.5 20:16:11 10° NW 20:22:36 87° SW 20:27:10 20° SE
Cosmos 1850 Rocket 3.9 20:19:58 10° SSW 20:25:15 75° ESE 20:30:31 10° NNE
Cosmos 2221 Rocket 4.5 20:21:49 10° N 20:25:59 35° ENE 20:28:08 23° ESE
Cosmos 841 Rocket 3.5 20:21:04 10° NNW 20:26:21 86° ENE 20:29:55 21° SSE
Meteor 1-25 Rocket 4.4 20:21:28 10° SSW 20:27:03 74° WNW 20:32:45 10° N
Cosmos 1500 3.7 20:25:36 26° SE 20:27:10 40° E 20:30:43 10° NNE
SPOT 1/Viking Rocket 3.6 20:23:32 17° SSE 20:27:42 90° W 20:32:58 10° NNW
Cosmos 1536 4.4 20:27:22 18° E 20:27:52 18° E 20:30:36 10° NE
Cosmos 2360 Rocket 2.3 20:22:25 10° NNW 20:28:07 69° ENE 20:31:48 22° SE
Meteor 1-18 Rocket 4.5 20:23:12 10° NNW 20:28:44 67° W 20:33:52 12° S
USA 276 3.4 20:26:44 10° W 20:29:28 27° SSW 20:30:11 24° S
USA 32 4.5 20:24:28 10° SSW 20:29:40 64° W 20:34:53 10° N
Okean 3 4.0 20:25:55 10° N 20:30:04 45° ENE 20:32:07 26° SE
X-37B 2.7 20:28:23 10° WSW 20:30:15 15° SSW 20:30:22 15° SSW
Terra 2.3 20:27:56 23° SE 20:30:37 46° ENE 20:35:10 10° N
Cosmos 2237 4.2 20:26:33 10° NNW 20:32:18 80° ENE 20:35:58 23° SE
IGS 5A 3.8 20:29:39 16° S 20:32:54 62° W 20:37:03 10° NNW
ATLAS 3B R/B 3.0 20:27:26 10° S 20:33:27 39° ESE 20:39:31 10° NE
Cosmos 1238 Rocket 3.2 20:31:04 10° SSW 20:33:55 44° WNW 20:36:55 10° N
USA 234 3.3 20:29:00 17° ESE 20:34:20 84° NNE 20:40:55 10° WNW
Cosmos 1980 Rocket 4.4 20:32:18 10° NW 20:36:12 19° W 20:40:05 10° SW
Cosmos 44 3.9 20:32:40 10° NW 20:37:26 51° WSW 20:40:36 21° S
Cosmos 1666 3.8 20:37:36 25° E 20:38:02 25° E 20:41:10 10° NNE
COSMOS 2487 4.3 20:39:02 16° E 20:39:02 16° E 20:40:28 10° NE
Lacrosse 5 3.3 20:34:39 10° WNW 20:38:53 27° SW 20:41:50 16° S
Resurs 01 Rocket 3.4 20:36:16 10° SSW 20:40:05 28° W 20:43:58 10° NW
Iridium 4 Rocket 3.5 20:38:44 28° SE 20:40:17 40° E 20:44:12 10° NNE
Cosmos 1602 4.4 20:38:36 10° SSW 20:42:28 55° WNW 20:46:22 10° N
CARTOSAT-1 3.5 20:40:31 26° SSE 20:42:56 85° ENE 20:47:18 10° NNW
GP-B 4.3 20:39:06 10° N 20:43:18 42° W 20:47:30 10° SSW
Cosmos 1153 Rocket 4.5 20:37:51 10° S 20:44:01 86° W 20:50:17 10° N
CZ-4B DEB 4.4 20:46:38 34° S 20:47:57 75° WSW 20:51:17 10° NNW
Cosmos 1933 Rocket 4.4 20:44:41 10° SSW 20:49:00 50° WNW 20:53:22 10° N
Cosmos 1814 Rocket 4.1 20:48:47 10° NNW 20:54:00 73° WSW 20:56:56 27° S
Cosmos 2061 Rocket 4.2 20:50:45 25° SSE 20:54:07 50° E 21:00:05 10° NNE
COSMOS 2428 3.4 20:49:04 10° NNW 20:54:34 44° NE 20:57:48 23° ESE
Spot 2 Rocket 4.3 20:51:17 14° S 20:55:24 46° W 21:00:19 10° NNW
Cosmos 405 Rocket 4.2 20:51:59 10° SW 20:55:25 35° WNW 20:58:57 10° N
USA 238 DEB 4.2 20:51:42 10° WSW 20:58:20 63° NW 21:05:19 10° NE
USA 238 4.2 20:51:47 10° WSW 20:58:26 63° NW 21:05:25 10° NE
Cosmos 2237 Rocket 3.8 20:54:02 10° NNW 20:58:44 26° NE 21:02:46 12° E
Okean 1-7 4.0 20:54:52 10° NNW 20:58:59 43° W 21:01:51 18° SSW
Cosmos 1802 Rocket 4.1 20:54:58 22° S 20:59:06 64° E 21:05:21 10° NNE
Cosmos 1869 Rocket 3.5 20:57:44 22° S 21:00:34 88° WNW 21:05:05 10° N
CENTAUR R/B 2.7 20:55:13 10° SW 21:01:23 80° NW 21:08:48 10° NE
Cosmos 44 Rocket 3.7 20:56:48 10° NW 21:01:43 56° NE 21:04:15 28° ESE
Cosmos 1437 Rocket 4.4 21:01:35 10° NNW 21:04:52 28° W 21:07:19 15° SW
FALCON 9 DEB 3.3 21:04:48 10° W 21:08:19 71° N 21:09:36 36° E
Cosmos 1271 Rocket 3.9 21:05:28 10° N 21:08:49 28° ENE 21:09:24 27° E
Cosmos 2333 Rocket 2.4 21:06:53 10° NNW 21:12:40 66° NE 21:15:19 32° SE
Cosmos 1674 Rocket 4.0 21:08:39 10° N 21:12:52 46° ENE 21:13:54 38° ESE
ATLAS 5 CENTAUR R/B 1.9 21:10:34 10° NW 21:13:11 75° SW 21:14:58 36° SE
Cosmos 2084 Rocket 4.0 21:11:16 10° WSW 21:15:27 58° NW 21:19:45 10° NE
Cosmos 1066 Rocket 4.2 21:13:34 10° N 21:19:15 71° ENE 21:21:30 37° SSE
SPOT 5 3.2 21:17:39 29° SSW 21:19:35 51° W 21:23:58 10° NNW
NOSS 5 (C) 4.3 21:18:12 10° SW 21:22:14 89° ESE 21:25:25 10° NE
Cosmos 1486 Rocket 4.4 21:22:06 38° SE 21:23:02 41° ESE 21:27:54 10° NE
Meteor 1-5 Rocket 4.4 21:18:35 19° SSW 21:23:02 80° WNW 21:28:57 10° NNE
ERBS 2.3 21:26:48 10° WNW 21:30:06 69° NNE 21:30:13 68° NE
Cosmos 1733 Rocket 3.0 21:29:41 52° SSE 21:30:33 65° E 21:34:58 10° NNE
Cosmos 1356 3.3 21:30:29 75° SW 21:30:43 83° WNW 21:34:10 10° NNE
Cosmos 489 Rocket 4.5 21:27:45 10° NNW 21:34:06 76° ENE 21:36:44 37° SE
Meteor 1-11 Rocket 3.7 21:31:46 30° S 21:34:44 89° E 21:40:36 10° NNE
Tsikada Rocket 4.0 21:29:36 10° N 21:35:59 89° ENE 21:38:45 36° S
Cosmos 968 Rocket 3.7 21:37:25 44° SE 21:38:06 47° ESE 21:43:02 10° NE
Lacrosse 4 Rocket 1.3 21:37:37 59° S 21:38:16 72° ESE 21:42:26 10° NE
Cosmos 2227 Rocket 4.4 21:40:11 10° E 21:40:11 10° E 21:40:25 10° E
USA 267 3.1 21:33:49 10° ENE 21:40:24 75° SSE 21:46:57 10° SW
ALOS 2 3.9 21:39:37 26° E 21:40:34 29° ENE 21:44:22 10° N
Cosmos 2219 Rocket 2.1 21:36:43 10° NNW 21:42:28 90° SW 21:44:23 44° SSE
SL-4 R/B 1.9 21:39:39 10° W 21:42:59 59° WSW 21:42:59 59° WSW
SL-16 R/B 4.2 21:41:10 10° WNW 21:44:56 18° W 21:48:19 11° SW
Cosmos 1242 Rocket 3.0 21:47:09 10° NNW 21:50:42 52° W 21:50:53 51° WSW
Meteor 1-23 Rocket 4.4 21:49:19 10° NNW 21:55:07 69° W 21:57:14 40° SSW
Cosmos 2322 4.0 21:50:13 10° NW 21:55:45 55° WSW 21:57:25 40° SSW
Cosmos 1725 Rocket 4.1 21:55:17 29° SSW 21:58:40 74° WNW 22:05:02 10° N
Spot 4 3.8 21:58:19 56° SE 21:59:16 76° ENE 22:04:08 10° NNW
Cosmos 1842 3.9 21:58:08 10° N 22:01:52 45° ENE 22:01:52 45° ENE
Cosmos 1833 4.3 21:58:11 21° SW 22:02:00 74° WNW 22:07:43 10° NNE
Cosmos 2322 Rocket 4.3 21:58:37 10° WNW 22:02:07 17° W 22:05:03 12° SW
Cosmos 1536 3.5 22:03:05 40° WSW 22:03:56 48° WNW 22:07:50 10° N
Cosmos 1378 Rocket 3.6 21:59:50 10° NNW 22:04:17 73° W 22:04:52 62° SSW
Cosmos 1908 Rocket 3.6 22:04:49 58° E 22:04:51 58° E 22:09:09 10° NNE
Cosmos 2344 4.4 21:58:38 10° NW 22:07:30 72° NE 22:17:17 18° ESE
Terra 3.3 22:06:49 22° SW 22:08:33 28° W 22:12:39 10° NW
Cosmos 2360 Rocket 3.7 22:07:08 10° NW 22:11:38 25° WSW 22:13:33 20° SW
COSMOS 2487 3.5 22:12:29 39° WNW 22:12:50 40° WNW 22:16:07 10° NNE
Cosmos 1666 4.2 22:12:27 26° WSW 22:13:31 30° WNW 22:16:54 10° N
SL-16 R/B 3.6 22:09:15 10° NNW 22:14:22 32° NE 22:17:40 19° E
USA 234 3.7 22:16:20 38° SSW 22:17:45 43° SW 22:23:55 10° WNW
MOS 1-B Rocket 3.8 22:15:32 10° NNE 22:21:11 83° WNW 22:23:10 43° SSW
Cosmos 1378 3.9 22:17:52 10° NNW 22:21:16 43° W 22:21:16 43° W
ATLAS 3B R/B 3.0 22:17:18 10° WSW 22:23:52 64° NW 22:30:33 10° NE
Cosmos 1354 Rocket 4.0 22:23:58 60° SSE 22:24:38 67° ESE 22:29:57 10° NNE
Cosmos 1975 Rocket 3.0 22:22:36 10° N 22:27:06 71° ENE 22:27:17 70° E
Cosmos 1544 3.6 22:30:40 57° NNE 22:30:40 57° NNE 22:33:41 10° NNE
Meteor 1-21 4.2 22:25:51 10° NNW 22:31:42 81° ENE 22:33:00 56° SSE
Cosmos 2297 Rocket 3.2 22:32:12 30° ESE 22:32:12 30° ESE 22:36:54 10° NE
Thor Agena Rocket 3.4 22:29:02 10° NNE 22:34:10 87° ESE 22:35:03 63° S
Okean 2 3.4 22:30:31 10° NNW 22:34:30 73° WNW 22:34:30 73° WNW
Cosmos 1743 3.2 22:35:21 54° WNW 22:35:21 54° WNW 22:39:11 10° N
Cosmos 1980 3.6 22:30:01 10° NNW 22:35:45 90° ENE 22:36:58 58° SSE
Cosmos 1975 3.0 22:36:14 67° NE 22:36:14 67° NE 22:39:53 10° NNE
Nimbus 7 Rocket 4.5 22:30:11 10° NNE 22:36:02 61° ESE 22:37:08 52° SSE
Meteor 2-9 Rocket 4.2 22:35:06 55° SE 22:36:05 66° E 22:41:50 10° NNE
Cosmos 2233 Rocket 4.3 22:34:08 34° SW 22:36:53 61° WNW 22:43:11 10° N
COSMOS 2428 3.3 22:33:29 10° NW 22:38:51 42° WSW 22:39:48 39° SW
Timation 2 Rocket 4.0 22:39:52 51° SE 22:40:38 55° ESE 22:46:30 10° NE
Cosmos 1025 Rocket 3.8 22:38:22 10° N 22:42:26 41° ENE 22:42:31 41° ENE
Cosmos 44 Rocket 4.4 22:38:38 10° NW 22:42:56 32° WSW 22:42:56 32° WSW
Cosmos 2237 Rocket 2.1 22:37:49 10° NNW 22:43:32 86° WSW 22:44:34 61° SSE
Cosmos 1271 Rocket 4.2 22:41:28 10° NNW 22:44:31 28° W 22:44:31 28° W
Cosmos 2219 3.6 22:46:31 43° ESE 22:46:38 43° ESE 22:51:55 10° NE
SJ 16-02 3.7 22:47:38 12° E 22:47:38 12° E 22:48:54 10° ENE
Cosmos 1464 Rocket 3.9 22:46:12 53° SSE 22:47:39 73° E 22:53:48 10° NNE
NOSS 0 Rocket 4.1 22:44:31 10° NW 22:50:38 57° WSW 22:51:50 49° SSW
CENTAUR R/B 4.2 22:46:58 10° W 22:53:08 38° NNW 23:00:21 10° NE
Nadezhda 4 Rocket 4.0 22:47:01 10° N 22:53:20 75° ENE 22:54:56 51° SSE
Okean 2 Rocket 3.8 22:53:44 43° E 22:53:44 43° E 22:57:48 10° NNE
Cosmos 2333 Rocket 3.5 22:51:47 10° NW 22:56:30 27° WSW 22:57:19 26° WSW
Cosmos 1674 4.4 22:54:04 10° NNE 22:57:04 24° ENE 22:57:04 24° ENE
Cosmos 1503 Rocket 4.3 22:58:14 43° WSW 22:59:49 63° WNW 23:05:10 10° NNE
DNEPR-1 R/B 4.0 23:08:43 10° NW 23:14:35 62° SW 23:14:42 62° SW
Sich 1 Rocket 3.5 23:15:13 79° NW 23:15:13 79° NW 23:19:32 10° N
Cosmos 1092 Rocket 4.1 23:08:52 10° N 23:15:06 69° ENE 23:16:44 49° SE
ALOS 2 3.4 23:17:00 39° W 23:17:00 39° W 23:20:57 10° NNW
Lacrosse 4 Rocket 3.6 23:13:58 10° W 23:17:22 23° NW 23:20:43 10° NNE
Cosmos 773 Rocket 4.4 23:12:39 10° NW 23:17:33 45° WSW 23:17:38 45° WSW
Helios 1A 3.0 23:18:09 78° NNW 23:18:09 78° NNW 23:22:08 10° NNW
Cosmos 1626 4.3 23:15:33 10° NNE 23:18:12 18° ENE 23:18:35 18° ENE
Cosmos 2034 Rocket 3.9 23:19:27 55° S 23:21:00 89° E 23:27:24 10° N
YAOGAN 11 4.1 23:22:19 86° SE 23:22:25 88° ENE 23:27:01 10° NNW
Cosmos 1707 3.3 23:18:32 10° NNW 23:21:46 53° NW 23:21:46 53° NW
Cosmos 2227 Rocket 2.3 23:22:00 56° SE 23:22:29 58° ESE 23:28:03 10° NE
Cosmos 1461 4.5 23:24:34 27° E 23:24:34 27° E 23:27:26 10° ENE
USA 267 3.6 23:16:56 10° ENE 23:23:23 63° NNW 23:29:50 10° W
Cosmos 2219 Rocket 3.9 23:21:56 10° WNW 23:25:38 18° W 23:26:05 18° WSW
Cosmos 2151 Rocket 3.7 23:26:48 63° ENE 23:26:48 63° ENE 23:30:58 10° NNE
Cosmos 1536 Rocket 3.5 23:25:31 10° N 23:29:39 80° NNW 23:29:39 80° NNW
Meteor 1-12 Rocket 4.3 23:28:42 59° S 23:29:56 84° E 23:36:01 10° NNE
Resurs 1-4 Rocket 4.2 23:30:59 10° NE 23:33:55 15° E 23:35:32 13° ESE
Meteor 2-5 Rocket 4.3 23:29:44 10° N 23:35:12 50° ENE 23:36:52 38° ESE
Cosmos 1538 Rocket 4.3 23:30:32 10° NNW 23:35:31 50° WSW 23:35:35 50° WSW
Cosmos 1805 4.3 23:45:52 38° ENE 23:45:52 38° ENE 23:49:03 10° NNE
Cosmos 158 Rocket 4.0 23:40:08 10° NNW 23:45:34 80° ENE 23:46:39 58° SE
Cosmos 1607 4.1 23:40:08 10° NW 23:46:28 59° WSW 23:47:26 53° SSW
Cosmos 2082 3.8 23:48:47 52° SE 23:49:24 55° ESE 23:54:53 10° NE
Helios 1B rocket 2.9 23:50:35 10° NNE 23:54:18 51° E 23:54:18 51° E
PSLV R/B 3.6 23:50:02 10° NNE 23:54:47 81° ESE 23:55:06 76° SSE
